Regional Weather Roundup
Issued by NWS

Home | Current Version | Previous Version | Graphics & Text | Print | Product List | Glossary On
Versions: 1 2 3 4 5 6 7 8 9 10 11 12 13 14 15 16 17 18 19 20 21 22 23 24 25 26 27 28 29 30 31 32 33 34 35 36 37 38 39 40 41 42 43 44 45 46 47 48 49 50
000
ASUS43 KLOT 262204
RWRIL

ILLINOIS REGIONAL WEATHER ROUNDUP
NATIONAL WEATHER SERVICE CHICAGO/ROMEOVILLE IL
500 PM CDT WED JUL 26 2017

NOTE: "FAIR" INDICATES FEW OR NO CLOUDS BELOW 12,000 FEET WITH NO
SIGNIFICANT WEATHER AND/OR OBSTRUCTIONS TO VISIBILITY.

* THESE STATIONS ARE NOT UNDER NWS QUALITY CONTROL. THEY ALSO MAY NOT
  REPORT WEATHER SUCH AS PRECIPITATION OR FOG.

ILZ001-002-007-009-015-016-024-262300-
NORTHWEST ILLINOIS

CITY           SKY/WX    TMP DP  RH WIND       PRES   REMARKS
MOLINE         CLOUDY    85  77  77 SE5       29.93F HX  95
STERLING*      CLOUDY    81  77  88 VRB6      29.96F HX  88
SAVANNA*       PTSUNNY   83  76  80 SE6       29.95F HX  90
$$

ILZ003-004-008-010-011-017-018-262300-
NORTH CENTRAL ILLINOIS

CITY           SKY/WX    TMP DP  RH WIND       PRES   REMARKS
ROCKFORD       CLOUDY    82  74  76 S9        29.99F HX  88
FREEPORT*      CLOUDY    79  74  85 S5        29.99F HX  83
ROCHELLE*      CLOUDY    79  75  87 SE3       29.99F HX  83
DE KALB*       CLOUDY    79  74  85 S7        30.01F HX  83
PERU*          CLOUDY    83  72  70 SE5       29.98F HX  88
$$

ILZ005-006-012>014-019>023-262300-
NORTHEAST ILLINOIS

CITY           SKY/WX    TMP DP  RH WIND       PRES   REMARKS
CHICAGO-OHARE  CLOUDY    83  68  60 SW8       29.98F HX  86
CHICAGO-MIDWAY CLOUDY    83  69  62 S8        29.99F HX  86
AURORA         CLOUDY    81  74  79 S7        30.00F HX  86
LANSING*       CLOUDY    81  70  69 S6        30.01F HX  84
JOLIET*        CLOUDY    82  74  77 SE3       29.99F HX  89
WAUKEGAN       CLOUDY    79  72  79 SE7       29.98F HX  82
DUPAGE AIRPORT CLOUDY    81  74  79 SW8       29.99F HAZE    HX  86
KANKAKEE*      CLOUDY    82  72  70 CALM      30.01F HX  87
WHEELING       CLOUDY    83  70  64 SW7       29.99F HX  87
MORRIS*        CLOUDY    81  75  82 SE6       29.98F HX  86
ROMEOVILLE*    CLOUDY    80  71  73 SE6       30.00F HX  84
NORTHERLY ISL    N/A     82  66  58 S7          N/A  HX  84
$$

LMZ740>746-262300-
SOUTHERN LAKE MICHIGAN

STATION/POSITION SKY/WX   TEMP    WIND        PRES    VSBY  WAVE
                          AIR SEA DIR/SP/G                  HT/PER
                          (F)     (DEG/KT/KT) (MB)    (MI)  (FT/S)
SOUTHERN BUOY              73 71  140/ 10/ 12 1016.4          2/ 4
WILMETTE HARBOR            74 72  130/  6/  8   N/A           1/ 3
HARRISON CRIB              79     160/  5/  8   N/A
BURNHAM HARBOR             83                   N/A
CALUMET HARBOR             83     220/  5/  9 1015.6F
BURNS HARBOR               82     190/  7/ 11 1016.6F
MICHIGAN CITY              80     170/  6/  8   N/A
MICHIGAN CITY 6N           78 77   80/  4/  4   N/A           0
ST. JOSEPH                 79 77   90/  2/  2 1015.9F         1
$$

ILZ025>027-034>036-040-047-049-050-058-095>099-262300-
WEST-CENTRAL ILLINOIS

CITY           SKY/WX    TMP DP  RH WIND       PRES   REMARKS
QUINCY         CLOUDY    77  67  71 S5        29.96F
GALESBURG*     CLOUDY    84  77  79 CALM      29.95F HX  93
MACOMB*        CLOUDY    87  76  71 S6        29.96F HX  97
JACKSONVILLE*  CLOUDY    88  76  68 SW5       29.96F HX  98
PITTSFIELD*    CLOUDY    87  78  72 SW3       29.99F HX 100
$$

ILZ028>032-037-038-041>044-048-051>054-059>061-262300-
CENTRAL ILLINOIS

CITY           SKY/WX    TMP DP  RH WIND       PRES   REMARKS
PONTIAC        CLOUDY    84  78  83 SE7       30.00S HX  94
BLOOMINGTON    CLOUDY    86  73  65 SW6       30.00F HX  93
DECATUR        CLOUDY    88  73  61 SW7       29.99F HX  95
PEORIA         PTSUNNY   86  77  74 S6        29.96F HX  97
LACON*         CLOUDY    85  75  73 SE3       29.95F HX  93
LINCOLN*       CLOUDY    88  78  70 SE3       29.98F HX 101
SPRINGFIELD    MOSUNNY   90  79  70 W5        29.98F HX 106
TAYLORVILLE    MOSUNNY   89  76  66 SW5       29.98F HX  99
$$

ILZ033-039-045-046-055>057-062-063-262300-
EAST-CENTRAL ILLINOIS

CITY           SKY/WX    TMP DP  RH WIND       PRES   REMARKS
CHAMPAIGN      MOSUNNY   86  76  71 S5        30.00F HX  96
RANTOUL*       CLOUDY    86  76  71 SE7       29.99F HX  96
MATTOON        PTSUNNY   87  78  74 CALM      29.99S HX 100
PARIS*         PTSUNNY   85  78  78 S6        30.01F HX  96
$$

ILZ079-100>102-262300-
SOUTHWEST ILLINOIS

CITY           SKY/WX    TMP DP  RH WIND       PRES   REMARKS
ALTON          PTSUNNY   90  79  70 NW8       29.98S HX 105
BELLEVILLE     CLOUDY    87  75  67 CALM      29.98F HX  97
CAHOKIA*       CLOUDY    94  76  55 E9        29.96F HX 106
SPARTA*        CLOUDY    83  73  72 E7        30.00F HX  89
$$

ILZ064>066-069>071-074>076-080>082-084>086-088>090-092>094-262300-
SOUTH-CENTRAL ILLINOIS

CITY           SKY/WX    TMP DP  RH WIND       PRES   REMARKS
CARBONDALE     CLOUDY    84  77  79 NE3       29.99F HX  94
CAIRO*         CLOUDY    89  77  69 SW6       30.00R HX 101
EFFINGHAM*     CLOUDY    91  76  60 SW3       30.00S HX 102
MARION         PTSUNNY   84  75  74 NE9       30.00S HX  92
MT. VERNON     CLOUDY    79  75  87 SW3       29.99F HX  83
CENTRALIA*     CLOUDY    84  74  72 S5        29.98F HX  91
SALEM*         CLOUDY    84  71  65 SW6       29.99F HX  89
METROPOLIS*    MOSUNNY   90  78  69 CALM      30.00F HX 104
$$

ILZ067-068-072-073-078-083-087-091-262300-
SOUTHEAST ILLINOIS

CITY           SKY/WX    TMP DP  RH WIND       PRES   REMARKS
LAWRENCEVILLE  CLOUDY    90  78  68 CALM      29.98F HX 104
FLORA*         CLOUDY    80  74  82 SE6         N/A  HX  84
FAIRFIELD*     CLOUDY    78  76  92 S6        30.00R HX  81
HARRISBURG*    CLOUDY    84  75  74 NE7       30.01S HX  92
ROBINSON*      CLOUDY    87  77  73 SW3       29.99F HX  98
CARMI*         TSTM      74  72  91 S14G24    30.02R
$$

ABBREVIATIONS USED IN REMARKS
   TC - TEMPERATURE IN CELSIUS
  WCI - WIND CHILL INDEX
   HX - HEAT INDEX
  VSB - VISIBILITY
$$





USA.gov is the U.S. government's official web portal to all federal, state and local government web resources and services.